Torna al catalogo

BREEZE-M R/B

AttivoMEO
NORAD 36359·ROCKET BODY·🇷🇺 Russia

Lanciato Jan 28, 2010 da Baikonur Cosmodrome

Loading…

Prossimi Passaggi (prossime 24 ore)

TLE

AggiornatoSource: Space-Track

Epoca: Sep 14, 2026, 12:17 UTC

1 36359U 10002B   26257.51230198 -.00000216  00000-0  00000-0 0  9990
2 36359  11.0461  35.6108 0210764 257.5515 289.2936  1.04041315 63157

Traccia BREEZE-M R/B in tempo reale con AllMySat

Download on the App Store